Valle del Fuerte International Airport

Jump to: basic info | weather | frequencies | runways | comments

Related pages: nearby airports | nearby navaids | notams | map

Basic information (top)

Codes: LMM MMLM
Location: lon 25.685200, lat -109.081001, elev 16 ft / 5 m msl
Status: medium_airport
Scheduled airline service: yes
Links: Wikipedia Mobile

Weather (top)

Current conditions (rec'd 2014/10/30 17:40Z):

MMLM 301740Z 33010KT 10SM SCT220 29/18 A2995 RMK SLP142 8/004 HZY

Airport forecast (rec'd 2014/10/30 06:15Z):

TAF MMLM 300512Z 3006/3106 30005KT P6SM SCT250 
     FM301600 33010KT P6SM BKN250 
     FM310300 00000KT P6SM BKN250

Frequencies (top)

Verify before use: may be inaccurate or out of date.

TWR: 118.8 MHz (MOCHIS TWR)

Runways (top)

09/27: 6,562 x 148 ft (2,000 x 45 m) — paved — lighted

Latest comments (top)

No comments yet for Valle del Fuerte International Airport

More... (top)

See also NOTAMs and nearby airports and navaids, or visit the Valle del Fuerte International Airport page at the main OurAirports website..